Weather History for CZTB - January, 2013

Change the Weather History Date:

Thursday, January 10, 2013

  Actual Average Record
Temperature  
Mean Temperature 34 °F -  
Max Temperature 44 °F - - ()
Min Temperature 23 °F - - ()
Degree Days  
Heating Degree Days 32    
Moisture  
Dew Point 23 °F    
Average Humidity 64    
Maximum Humidity 90    
Minimum Humidity 33    
Precipitation  
Precipitation 0.00 in - - ()
Sea Level Pressure  
Sea Level Pressure 30.20 in    
Wind  
Wind Speed 4 mph ()    
Max Wind Speed 13 mph    
Max Gust Speed 18 mph    
T = Trace of Precipitation, MM = Missing Value Source: Averaged Metar Reports

Daily Weather History Graph

Daily Weather History Graph

Search for Another Location

Airport or City:

Trip Planner

Search our weather history database for the weather conditions in past years. The results will help you decide how hot, cold, wet, or windy it might be!

Date:

Astronomy

Jan. 10, 2013 Rise Set
Actual Time 8:46 AM EST 5:24 PM EST
Civil Twilight 8:10 AM EST 5:59 PM EST
Nautical Twilight 7:31 AM EST 6:39 PM EST
Astronomical Twilight 6:53 AM EST 7:16 PM EST
Moon 7:25 AM EST (1/10) 4:32 PM EST (1/10)
Length of Visible Light 9h 49m
Length of Day
8h 37m
Waning Crescent, 2% of the Moon is Illuminated
Jan 10
Waning Crescent
Jan 11
New
Jan 18
First Quarter
Jan 26
Full
Feb 3
Last Quarter

Hourly Weather History & Observations

Time (EST) Temp. Windchill Dew Point Humidity Pressure Visibility Wind Dir Wind Speed Gust Speed Precip Events Conditions
12:00 AM 27.5 °F 21.1 °F 20.3 °F 74% 30.36 in - West 5.8 mph - N/A   Unknown
1:00 AM 27 °F - 20 °F 66% 30.38 in - SSW 3.5 mph - -  
1:00 AM 26.6 °F 22.6 °F 20.1 °F 77% 30.38 in - SSW 3.5 mph - N/A   Unknown
2:00 AM 27.0 °F - 20.1 °F 75% 30.37 in - South 2.3 mph - N/A   Unknown
3:00 AM 25.3 °F 21.1 °F 19.6 °F 79% 30.34 in - ESE 3.5 mph - N/A   Unknown
4:00 AM 25.3 °F - 19.0 °F 77% 30.35 in - West 1.2 mph - N/A   Unknown
5:00 AM 23.5 °F - 19.9 °F 86% 30.34 in - South 2.3 mph - N/A   Unknown
6:00 AM 24.3 °F - 20.8 °F 87% 30.33 in - North 2.3 mph - N/A   Unknown
8:00 AM 28.0 °F 22.8 °F 25.5 °F 90% 30.29 in - SSE 4.6 mph - N/A   Unknown
9:00 AM 30.9 °F 26.2 °F 26.4 °F 83% 30.28 in - SE 4.6 mph - N/A   Unknown
10:00 AM 34.0 °F 29.8 °F 26.2 °F 73% 30.26 in - SSE 4.6 mph - N/A   Unknown
11:00 AM 36.9 °F 33.1 °F 26.4 °F 66% 30.23 in - South 4.6 mph - N/A   Unknown
12:00 PM 40.1 °F 35.3 °F 25.2 °F 55% 30.20 in - South 6.9 mph - N/A   Unknown
1:00 PM 43 °F - 24 °F 33% 30.16 in - SSW 8.1 mph - -  
1:00 PM 42.6 °F 37.8 °F 23.5 °F 47% 30.16 in - SSW 8.1 mph - N/A   Unknown
2:00 PM 44.6 °F 40.2 °F 21.9 °F 41% 30.13 in - SSW 8.1 mph - N/A   Unknown
3:00 PM 43.3 °F 36.8 °F 19.8 °F 39% 30.12 in - SSW 12.7 mph 18.4 mph N/A   Unknown
4:00 PM 41.9 °F 36.3 °F 17.4 °F 37% 30.12 in - SW 9.2 mph - N/A   Unknown
5:00 PM 41.2 °F 35.5 °F 15.8 °F 36% 30.12 in - SW 9.2 mph - N/A   Unknown
6:00 PM 39.2 °F 35.9 °F 19.8 °F 46% 30.12 in - South 4.6 mph - N/A   Unknown
7:00 PM 37 °F - 23 °F 45% 30.10 in - SSE 4.6 mph - -  
7:00 PM 37.2 °F 33.6 °F 23.4 °F 57% 30.10 in - SSE 4.6 mph - N/A   Unknown
8:00 PM 34.3 °F 29.2 °F 27.3 °F 76% 30.05 in - East 5.8 mph - N/A   Unknown
9:00 PM 35.1 °F 29.3 °F 28.2 °F 76% 30.00 in - ENE 6.9 mph - N/A   Unknown
10:00 PM 33.6 °F 30.6 °F 26.1 °F 74% 29.98 in - NNE 3.5 mph - N/A   Unknown
11:00 PM 36.1 °F - 28.4 °F 73% 29.94 in - NE 2.3 mph - N/A   Unknown